This demonstration page uses our WeatherBlox Daily Observations layout. Learn more.

Left ArrowRight Arrow

Hourly Observations for April 14, 2016

Temp ( °F °C ) Dew Point ( °F °C ) Humidity (%) Winds ( mph kmh ) Pressure ( in mb ) Visibility ( mi km ) Precip ( " mm )
12:54 am 00:54 Hazy 51 10.6 40 4.4 66 66 S 8 13 30.00 1016 4 6 0.00 0.00
1:54 am 01:54 Clear 57 13.9 46 7.8 67 67 S 12 19 30.01 1016 8 13 0.00 0.00
2:54 am 02:54 Clear 55 12.8 48 8.9 77 77 S 12 19 30.02 1017 10 16 0.00 0.00
3:54 am 03:54 Clear 52 11.1 48 8.9 86 86 S 9 15 30.04 1017 9 14 0.00 0.00
4:54 am 04:54 Clear 49 9.4 46 7.8 90 90 S 8 13 30.04 1017 7 11 0.00 0.00
5:54 am 05:54 Clear with Mist and Fog 48 8.9 46 7.8 93 93 S 5 7 30.05 1018 6 10 0.00 0.00
6:54 am 06:54 Sunny with Mist and Fog 49 9.4 46 7.8 90 90 Calm 30.06 1018 3 5 0.00 0.00
7:08 am 07:08 Sunny with Mist and Fog 48 9 46 8 94 94 S 5 7 30.09 1019 3 4 0.00 0.00
7:26 am 07:26 Sunny with Mist and Fog 48 9 46 8 94 94 S 5 7 30.09 1019 3 5 0.00 0.00
7:54 am 07:54 Sunny with Mist and Fog 50 10 47 8.3 89 89 S 6 9 30.07 1018 3 5 0.00 0.00
8:41 am 08:41 Mostly Cloudy with Mist and Fog 53 11.7 49 9.4 86 86 SSW 12 19 30.09 1019 3 5 0.00 0.00
8:54 am 08:54 Cloudy with Haze 54 12.2 49 9.4 83 83 SSW 13 20 30.07 1018 3 5 0.00 0.00
9:14 am 09:14 Hazy 55 13 48 9 77 77 S 10 17 30.09 1019 4 6 0.00 0.00
9:54 am 09:54 Hazy 58 14.4 50 10 75 75 SSW 13 20 30.07 1018 5 8 0.00 0.00
10:54 am 10:54 Hazy 63 17.2 50 10 63 63 S 12 19 30.05 1018 6 10 0.00 0.00
11:54 am 11:54 Sunny 69 20.6 45 7.2 42 42 S 18 30 30.02 1017 10 16 0.00 0.00
12:54 pm 12:54 Sunny 72 22.2 41 5 33 33 SSE 21 33 29.99 1016 10 16 0.00 0.00
1:54 pm 13:54 Sunny 74 23.3 41 5 31 31 S 17 28 29.96 1015 10 16 0.00 0.00
2:54 pm 14:54 Sunny 75 23.9 38 3.3 26 26 S 21 33 29.93 1014 10 16 0.00 0.00
3:54 pm 15:54 Sunny 76 24.4 39 3.9 26 26 SSE 20 31 29.92 1013 10 16 0.00 0.00
4:54 pm 16:54 Sunny 76 24.4 38 3.3 25 25 S 13 20 29.90 1013 10 16 0.00 0.00
5:54 pm 17:54 Sunny 75 23.9 38 3.3 26 26 SSE 21 33 29.89 1012 10 16 0.00 0.00
6:54 pm 18:54 Sunny 72 22.2 37 2.8 28 28 SSE 20 31 29.88 1012 10 16 0.00 0.00
7:54 pm 19:54 Sunny 69 20.6 37 2.8 31 31 SSE 14 22 29.88 1012 10 16 0.00 0.00
8:54 pm 20:54 Clear 67 19.4 39 3.9 36 36 SSE 14 22 29.89 1012 10 16 0.00 0.00
9:54 pm 21:54 Clear 65 18.3 40 4.4 40 40 SSE 18 30 29.90 1013 10 16 0.00 0.00
10:54 pm 22:54 Clear 63 17.2 39 3.9 41 41 SSE 18 30 29.90 1013 10 16 0.00 0.00
11:54 pm 23:54 Clear 61 16.1 40 4.4 46 46 SSE 17 28 29.89 1012 10 16 0.00 0.00

Powered by AerisWeather